Погода в Ербогачене

Погода в Ербогачене : погода сейчас, прогноз погоды и архив. Всё, что Вы хотите узнать о погоде в Ербогачене!

Хотите узнать прогноз погоды в Ербогачене? Тогда Вам сюда: Погода в Ербогачене

Поиск расширенной информации на нашем сайте:

Другие новости

Новости СМИ2

Главная страница сайта

Новости сайта

03.07.2017

Напоминаем, что на нашем специализированном сайте Метеоцентр.Азия вы можете получить высокодетализированные автоматические прогнозы погоды по пунктам России, СНГ и мира в авиационном формате (включающие направление и скорость ветра, видимость, явления погоды, количество и форму облачности, нижнюю и верхнюю границу облачности).


Погода в Ербогачене - сегодня

Время (UTC), дата Ветер
(°,м/с) 
Видим.   Явления Облачность Т
(°С)
Тd
(°С)
f(%) Тe
(°С)
Pmin
(гПа)
dP
(гПа)
Po
(мм)
O2
(г/м3)
Тmin Tmax R s Состояние
почвы
06 17.10.18 тихо ()   20000 м    8/0 средняя, верхняя 
[Ac lent|Ci fib]
+3.2 -5.5 53 +3  1021.5  -0.9  740  295           
09 17.10.18 тихо ()   20000 м    3/0 средняя, верхняя 
[Ac lent|Ci fib]
+1.1 -6.4 57 +1  1021.3  -0.5  740  297           
12 17.10.18 110 (В) н/о    9/6 1000 м средняя 
[Sc|Ac trans]
-2.8 -5.1 84 -2  1020.9  -0.9  739  301    +3.6       
15 17.10.18 130 (ЮВ) н/о  слаб. ливневой снег  10/10 300 м кучево-дожд. 
[Cb cap]
-0.4 -2.5 86 -1  1019.2  -1.3  738  298           
18 17.10.18 120 (ЮВ) н/о  слаб. ливневой снег  10/10 300 м кучево-дожд. 
[Cb cap]
-1 -1.7 95 1017.3  -1.9  737  298           
21 17.10.18 250 (З) н/о  осадки на расстоянии{ливн. осадки}  10/10 300 м кучево-дожд. 
[Cb cap]
-0.4 -1 96 1017.2  737  297           
00 18.10.18 220 (ЮЗ) 10 км  слаб. ливневой дождь со снегом  10/10 300 м кучево-дожд. 
[Cb cap]
+0.6 -0.5 92 +1  1017.9  0.8  737  296  -3.3    равномерный
мокрый или
старый снег
100% 
03 18.10.18 250 (З) 20000 м  осадки на расстоянии{ливн. осадки}  10/10 300 м кучево-дожд. 
[Cb cap]
+1.8 -0.7 83 1018.9  1.1  738  295           
06 18.10.18 240 (ЮЗ) 20000 м  осадки на расстоянии{ливн. осадки}  10/10 300 м кучево-дожд. 
[Cb cap]
+2.3 -0.2 84 +2  1018.7  -0.1  738  295           
09 18.10.18 190 (Ю) 20000 м  осадки на расстоянии  10/10 600 м кучево-дожд. 
[Cb cap]
+1.9 -2.8 71 +1    0.3  738  296           
12 18.10.18 тихо ()   н/о  осадки на расстоянии  10/10 600 м кучево-дожд. 
[Cb cap]
+0.9 -2.3 79 +1  1019.2  -0.1  738  297    +2.7  0.0     
15 18.10.18 тихо ()   н/о  слаб. ливневой дождь со снегом  10/10 300 м кучево-дожд. 
[Cb cap]
+0.1 -2 86 1018.3  -0.9  737  297           
18 18.10.18 270 (З) н/о  слаб. ливневой дождь со снегом  10/10 300 м кучево-дожд. 
[Cb cap]
-0.2 -0.8 96 1017.8  -0.5  737  297           
21 18.10.18 240 (ЮЗ) н/о  слаб. ливневой снег  4/4 600 м кучево-дожд. 
[Cb cap]
-1.2 -1.9 95 -2  1018.2  0.3  737  299           
00 19.10.18 тихо ()   20000 м  осадки на расстоянии{ливн. осадки}  8/8 600 м кучево-дожд. 
[Cb cap]
-1.2 -2.2 93 -1  1019.1  0.9  738  299  -2.3    равномерный
мокрый или
старый снег
100% 
03 19.10.18 280 (З) 20000 м  осадки на расстоянии  9/9 600 м кучево-дожд. 
[Cb cap]
+0.3 -1.6 87 +1  1019.6  0.5  738  297           
06 19.10.18 250 (З) 20000 м  осадки на расстоянии{ливн. осадки}  10/10 300 м кучево-дожд. 
[Cb cap]
+1.1 -0.9 86 +2  1019.7  0.2  738  296           
09 19.10.18 250 (З) 20000 м  осадки на расстоянии{ливн. осадки}  9/9 600 м кучево-дожд. 
[Cb cap]
+0.8 -3.8 71 +1  1020.9  0.8  739  297           
12 19.10.18 тихо ()   н/о  осадки на расстоянии{ливн. осадки}  10/10 600 м кучево-дожд. 
[Cb cap]
-0.6 -2.7 86 -1  1021.3  0.5  739  299    +1.2  0.0     
15 19.10.18 тихо ()   н/о  осадки на расстоянии  9/9 600 м кучево-дожд. 
[Cb cap]
-1.5 -3.2 88 -2  1021.7  0.4  740  300           
18 19.10.18 тихо ()   н/о  осадки на расстоянии{ливн. осадки}  9/9 600 м кучево-дожд. 
[Cb cap]
-1.6 -3 90 -2  1021.6  -0.2  740  300           
21 19.10.18 тихо ()   н/о  осадки на расстоянии  10/10 600 м кучево-дожд. 
[Cb cap]
-1.5 -2.6 92 -2  1021.3  -0.2  739  300           
00 20.10.18 тихо ()   20000 м  осадки на расстоянии  10/10 600 м кучево-дожд. 
[Cb cap]
-1.3 -2.4 92 -1  1021.1  -0.2  739  300  -2.1      равномерный
мокрый или
старый снег
100% 
03 20.10.18 тихо ()   20000 м  осадки на расстоянии  10/10 600 м кучево-дожд. 
[Cb cap]
-0.4 -2.2 88 -0  1020.8  -0.1  739  299           
06 20.10.18 200 (Ю) 20000 м  осадки на расстоянии  10/10 600 м кучево-дожд. 
[Cb cap]
+1.2 -2 79 +2  1020  -0.7  739  297           
Время (UTC), дата Ветер
(°,м/с) 
Видим.   Явления Облачность Т
(°С)
Тd
(°С)
f(%) Тe
(°С)
Pmin
(гПа)
dP
(гПа)
Po
(мм)
O2
(г/м3)
Тmin Tmax R s Состояние
почвы

Для получения пояснительной информации подведите курсор к названию столбца.

ПОГОДА в Ербогачене - архив

Всё, что Вы хотите узнать о погоде в Ербогачене - удобно и подробно!

Выберите нужную дату (начиная с 1 января 2015* года) и нажмите кнопку "Найти".
Будут отображены архивные сводки погоды по пункту Ербогачен, начиная с указанной даты.


Отображать данные в формате CSV (для использования в таблицах Excel)


Внимание! Наш архив погоды предназначен исключительно для личного некоммерческого использования в познавательных целях. Если Вам необходимы официальные справки о состоянии погоды (для производственных, юридических, коммерческих и т.п. целей), обращайтесь в органы Росгидромета.

*Примечание: данная дата относится к архиву по метеостанциям СССР (Россия, СНГ, Балтия).
Архив по метеостанциям Зарубежной Европы и Азии (кроме Китая) хранится 10 дней, по другим регионам земного шара (Китай, Африка, Америка, Австралия, Океания) - 1 день.

Ербогачен - район местоположения метеостанции


Название, широта, долгота, высота метеостанции:
Ербогачен 61.3°ш. 108°д. 291 м над ур. моря [Российская Федерация]

Дополнительная информация

В oтличие oт бoльшинства пoгoдных сайтoв мы публикуем пoдрoбную метеoинфoрмацию в детальнoм прoфессиoнальнoм фoрмате.

Характеристики температуры и влажнoсти вoздуха измеряются на высoте 2 м в тени вдали oт зданий и деревьев.
Скoрoсть ветра измеряется на высoте 10 м (на урoвне рoста челoвека скoрoсть ветра ниже в 1.5-2 раза). Если метеoстанция нахoдится в гoрoде или в лесу, тo скoрoсть ветра занижена на 2-4 м/с пo сравнению с oткрытым местoм. Скoрoсть ветра над акватoриями крупных рек и oзёр, а также на вершинах хoлмoв на 2-5 м/с выше, чем в oбычных услoвиях.
Атмoсфернoе давление в разных тoчках местнoсти мoжет значительнo oтличаться oт давления на метеoстанции, в зависимoсти oт услoвий рельефа (при пoдъёме на 10 м давление пoнижается примернo на 1 мм рт.ст.).